Location: Arran
(51.9410°N, 101.7372°W)
Time: 16:34:16
(UTC+00:00)

COSMOS 2251 DEB - Visible Passes

Search period start: 28 May 2024 00:00
Search period end: 07 June 2024 00:00
Orbit: 761 x 789 km, 74.0° (Epoch: 27 May)

Date Brightness Start Highest point End Pass type
(mag) Time Alt. Az. Time Alt. Az. Time Alt. Az.
28 May ? 06:39:49 26° SSE 06:42:16 42° ESE 06:47:12 10° NE visible
28 May ? 08:20:12 12° WSW 08:24:35 37° NW 08:29:27 10° NNE visible
29 May ? 06:05:15 21° SE 06:07:29 28° E 06:11:55 10° NE visible
29 May ? 07:45:38 18° SW 07:49:26 53° WNW 07:54:35 10° NNE visible
29 May ? 09:30:10 10° WNW 09:32:56 14° NW 09:35:42 10° N visible
30 May ? 05:30:39 15° SE 05:32:48 19° E 05:36:23 10° NE visible
30 May ? 07:11:02 23° SSW 07:14:23 78° WNW 07:19:40 10° NNE visible
30 May ? 08:53:53 10° W 08:57:31 19° NW 09:01:10 10° N visible
31 May ? 04:56:11 10° ESE 04:58:10 12° E 05:00:10 10° ENE visible
31 May ? 06:36:25 26° S 06:39:26 72° ESE 06:44:39 10° NNE visible
31 May ? 08:17:54 10° WSW 08:22:11 25° NW 08:26:28 10° N visible
01 Jun ? 06:01:45 25° SSE 06:04:33 48° ESE 06:09:34 10° NE visible
01 Jun ? 07:42:12 10° WSW 07:46:57 34° NW 07:51:42 10° NNE visible
01 Jun ? 09:30:20 10° NW 09:30:54 10° NNW 09:31:29 10° NNW visible
02 Jun ? 05:27:03 20° SSE 05:29:44 32° ESE 05:34:20 10° NE visible
02 Jun ? 07:07:26 14° SW 07:11:46 47° WNW 07:16:51 10° NNE visible
02 Jun ? 08:52:56 10° WNW 08:55:23 13° NW 08:57:49 10° N visible
03 Jun ? 04:52:17 15° SE 04:55:00 21° E 04:58:53 10° NE visible
03 Jun ? 06:32:40 17° SW 06:36:42 69° WNW 06:41:57 10° NNE visible
03 Jun ? 08:16:32 10° W 08:19:57 17° NW 08:23:21 10° N visible
04 Jun ? 04:17:46 10° ESE 04:20:22 14° E 04:22:57 10° ENE visible
04 Jun ? 05:57:52 19° SSW 06:01:43 81° ESE 06:06:58 10° NNE visible
04 Jun ? 07:40:29 10° W 07:44:35 23° NW 07:48:41 10° N visible
05 Jun ? 05:23:00 18° S 05:26:48 54° ESE 05:31:54 10° NNE visible
05 Jun ? 07:04:41 10° WSW 07:09:19 31° NW 07:13:56 10° N visible
06 Jun ? 04:48:05 14° SSE 04:51:58 36° ESE 04:56:42 10° NE visible
06 Jun ? 06:29:09 10° SW 06:34:08 43° NW 06:39:06 10° NNE visible
06 Jun ? 08:15:46 10° NW 08:17:49 12° NNW 08:19:53 10° N visible
